Location: Newark
(23.3970°S, 47.6010°W)
Time: 01:49:06
(UTC+00:00)

Tiros 1 despin weight - Pass Details

Date: 18 February 2020
Orbit: 593 x 642 km, 48.2° (Epoch: 06 April)

Event Time Altitude Azimuth Distance (km) Brightness Sun altitude
Rises 14:36:54 0° 339° (NNW) 2,880 ? 73.7°
Reaches altitude 10° 14:39:23 10° 349° (N) 1,989 ? 74.1°
Maximum altitude 14:43:25 31° 51° (NE) 1,115 ? 74.8°
Drops below altitude 10° 14:47:32 10° 112° (ESE) 2,030 ? 75.4°
Sets 14:50:05 0° 122° (ESE) 2,950 ? 75.7°
